Location: Nied?wied?
(53.3665°N, 14.8184°E)
Time: 17:37:51
(UTC+00:00)

ISS - Pass Details

Date: 23 May 2021
Orbit: 417 x 422 km, 51.6° (Epoch: 14 June)

Event Time Altitude Azimuth Distance (km) Brightness Sun altitude
Rises 20:09:46 0° 270° (W) 2,366 0.7 -7.5°
Reaches altitude 10° 20:11:52 10° 267° (W) 1,503 -0.4 -7.7°
Maximum altitude 20:15:12 64° 186° (S) 472 -3.7 -8.0°
Drops below altitude 10° 20:18:33 10° 104° (ESE) 1,504 -1.4 -8.3°
Enters shadow 20:19:17 - 103° (ESE) 1,804 -1.0 -8.4°
